Content
SEND FEEDBACK

Daily
Averages
Monthly
Summary
Mexico

CANCUN, QUINTANA ROO


Home > North America > Mexico > Quintana Roo
Elevation: 9 meters     Latitude: 21 09N     Longitude: 086 49W

WEATHER
 
SELECT A DAY
Number of Records: 163,931;   Date Range: 1/1/95 - 8/31/14
 
SHARE

PRINT THIS DATA

[ ← Previous Day ]
WEATHER ALMANAC - 1 SEPTEMBER, 2013
[ Next Day → ]
[ °F ]   °C
Weather ElementAverageHighLow
Temperature27.2 °C30 °C (10:44 am)24 °C (5:44 am)
Dewpoint24.5 °C26 °C (9:43 am)23 °C (2:43 am)
Humidity85.6 %100 % (5:44 am)74 % (10:44 am)
Barometer972.6 hPa1015.2 hPa (10:23 pm) (7:00 pm)
Wind Speed9.3 km/h22.2 km/h (1:41 pm)
Weather ElementAverage
Visibility10.3 km
Wind DirectionENE (79.6 °)

Weather ElementTotal
Precipitation---
Cooling Degree Days8.7 (Base 18.3)
Growing Degree Days17 (Base 10)
Averaged from 25 records on 1 September, 2013
WEATHER CONDITIONS BREAKOUT
WIND DIRECTION BREAKOUT
WEATHER BY HOUR - 1 SEPTEMBER, 2013
[ °F ]   °C
Local TimeTemperatureDewpointHumidityBarometerVisibilityWind DirectionWind SpeedGust SpeedPrecipitationEventsConditions
1:42 AM26 °C25 °C94 %1012.9 hPa9.7 kmENE (70°)5.6 km/hMostly Cloudy
2:43 AM25 °C23 °C89 %1012.5 hPa9.7 kmCalmMostly Cloudy
3:47 AM25 °C24 °C94 %1013.9 hPa9.7 kmCalmScattered Clouds
4:43 AM25 °C24 °C94 %1011.9 hPa9.7 kmCalmScattered Clouds
5:44 AM24 °C24 °C100 %1011.9 hPa9.7 kmCalmMostly Cloudy
6:44 AM25 °C24 °C94 %1012.5 hPa11.3 kmCalmMostly Cloudy
7:43 AM28 °C25 °C84 %1012.5 hPa11.3 kmEast (100°)7.4 km/hMostly Cloudy
8:42 AM29 °C25 °C79 %1013.5 hPa11.3 kmESE (110°)7.4 km/hMostly Cloudy
9:43 AM28 °C26 °C89 %1013.9 hPa11.3 kmESE (120°)11.1 km/hMostly Cloudy
10:44 AM30 °C25 °C74 %1014.2 hPa11.3 kmEast (100°)11.1 km/hMostly Cloudy
11:41 AM30 °C25 °C74 %1014.6 hPa11.3 kmESE (110°)14.8 km/hMostly Cloudy
12:41 PM29 °C25 °C79 %1013.5 hPa11.3 kmESE (120°)14.8 km/hMostly Cloudy
1:41 PM26 °C23 °C83 %1013.5 hPa4.8 kmESE (120°)22.2 km/hRainRain
2:05 PM28 °C25 °C84 %9.7 kmESE (120°)7.4 km/hMostly Cloudy
2:45 PM28 °C25 °C84 %1012.2 hPa9.7 kmESE (110°)14.8 km/hMostly Cloudy
3:41 PM29 °C25 °C79 %1012.2 hPa9.7 kmESE (120°)9.3 km/hMostly Cloudy
4:43 PM29 °C25 °C79 %1012.2 hPa11.3 kmEast (90°)7.4 km/hMostly Cloudy
5:42 PM29 °C25 °C79 %1011.5 hPa11.3 kmENE (60°)5.6 km/hMostly Cloudy
6:45 PM28 °C24 °C79 %1011.9 hPa11.3 kmENE (70°)7.4 km/hMostly Cloudy
7:42 PM27 °C25 °C89 %1012.9 hPa11.3 kmEast (80°)7.4 km/hMostly Cloudy
8:49 PM27 °C24 °C84 %1014.2 hPa11.3 kmESE (120°)18.5 km/hMostly Cloudy
9:47 PM26 °C23 °C83 %1014.6 hPa11.3 kmEast (80°)20.4 km/hMostly Cloudy
10:23 PM26 °C24 °C89 %1015.2 hPa8 kmEast (100°)13 km/hRainLight Rain
10:48 PM26 °C24 °C89 %1015.2 hPa9.7 kmESE (120°)14.8 km/hMostly Cloudy
11:46 PM26 °C25 °C94 %1014.6 hPa9.7 kmENE (70°)13 km/hMostly Cloudy
Hourly data recorded from MMUN, located 0 kilometers away from Cancun, Quintana Roo







STORIES FROM OUR PARTNERS